Olney-Noble, IL

1:37 PM CDT on June 28, 2017 (GMT -0500)
Olney-Noble

Weather History for KOLY - September, 2013

Change the Weather History Date:

Friday, September 13, 2013

  Actual Average (KEVV) Record (KEVV)
Temperature  
Mean Temperature 65 °F -  
Max Temperature 75 °F 84 °F 99 °F (1939)
Min Temperature 55 °F 59 °F 40 °F (1940)
Growing Degree Days 15 (Base 50)    
Moisture  
Dew Point 52 °F    
Average Humidity 66    
Maximum Humidity 94    
Minimum Humidity 38    
Precipitation  
Precipitation 0.00 in - - ()
Sea Level Pressure  
Sea Level Pressure 30.08 in    
Wind  
Wind Speed 6 mph (North)    
Max Wind Speed 12 mph    
Max Gust Speed 21 mph    
Visibility 10 miles    
Events      
Averages and records for this station are not official NWS values.
T = Trace of Precipitation, MM = Missing Value Source: NWS Daily Summary

Daily Weather History Graph

Daily Weather History Graph

Search for Another Location

Airport or City:

Trip Planner

Search our weather history database for the weather conditions in past years. The results will help you decide how hot, cold, wet, or windy it might be!

Date:

Astronomy

Sep. 13, 2013 Rise Set
Actual Time 6:32 AM CDT 7:03 PM CDT
Civil Twilight 6:05 AM CDT 7:30 PM CDT
Nautical Twilight 5:34 AM CDT 8:01 PM CDT
Astronomical Twilight 5:02 AM CDT 8:33 PM CDT
Moon 2:50 PM CDT (9/13) 12:04 AM CDT (9/13)
Length of Visible Light 13h 24m
Length of Day
12h 31m
First Quarter, 61% of the Moon is Illuminated
Sep 13
First Quarter
Sep 19
Full
Sep 26
Last Quarter
Oct 4
New
Oct 11
First Quarter

Hourly Weather History & Observations

Time (CDT) Temp. Dew Point Humidity Pressure Visibility Wind Dir Wind Speed Gust Speed Precip Events Conditions
12:15 AM 64.4 °F 55.4 °F 73% 30.02 in 10.0 mi North 5.8 mph - N/A   Clear
12:35 AM - - N/A% 30.03 in 10.0 mi North 4.6 mph - N/A   Clear
12:55 AM 62.6 °F 55.4 °F 77% 30.03 in 10.0 mi North 5.8 mph - N/A   Clear
1:15 AM 62.6 °F 55.4 °F 77% 30.03 in 10.0 mi North 4.6 mph - N/A   Clear
1:35 AM 60.8 °F 55.4 °F 82% 30.04 in 10.0 mi North 4.6 mph - N/A   Clear
1:55 AM 60.8 °F 55.4 °F 82% 30.04 in 10.0 mi North 4.6 mph - N/A   Clear
2:15 AM 60.8 °F 55.4 °F 82% 30.04 in 10.0 mi North 4.6 mph - N/A   Clear
2:35 AM 60.8 °F 55.4 °F 82% 30.04 in 10.0 mi Calm Calm - N/A   Clear
2:55 AM 60.8 °F 55.4 °F 82% 30.04 in 10.0 mi Calm Calm - N/A   Clear
3:15 AM 60.8 °F 55.4 °F 82% 30.04 in 10.0 mi Calm Calm - N/A   Clear
3:35 AM 60.8 °F 57.2 °F 88% 30.04 in 10.0 mi North 4.6 mph - N/A   Clear
3:55 AM 60.8 °F 55.4 °F 82% 30.05 in 10.0 mi North 3.5 mph - N/A   Clear
4:15 AM 57.2 °F 55.4 °F 94% 30.05 in 10.0 mi NNW 4.6 mph - N/A   Clear
4:35 AM 57.2 °F 55.4 °F 94% 30.06 in 10.0 mi NNW 5.8 mph - N/A   Clear
4:55 AM 57.2 °F 55.4 °F 94% 30.06 in 10.0 mi North 5.8 mph - N/A   Clear
5:15 AM 57.2 °F 55.4 °F 94% 30.07 in 10.0 mi North 4.6 mph - N/A   Clear
5:35 AM 57.2 °F 55.4 °F 94% 30.07 in 10.0 mi North 4.6 mph - N/A   Clear
5:55 AM 57.2 °F 55.4 °F 94% 30.08 in 10.0 mi North 4.6 mph - N/A   Clear
6:15 AM 57.2 °F 55.4 °F 94% 30.09 in 10.0 mi North 4.6 mph - N/A   Clear
6:35 AM 57.2 °F 55.4 °F 94% 30.09 in 10.0 mi North 3.5 mph - N/A   Clear
6:55 AM 57.2 °F 55.4 °F 94% 30.09 in 10.0 mi North 3.5 mph - N/A   Clear
7:15 AM 59.0 °F 55.4 °F 88% 30.09 in 10.0 mi North 4.6 mph - N/A   Clear
7:35 AM 60.8 °F 55.4 °F 82% 30.10 in 10.0 mi NNE 8.1 mph - N/A   Clear
7:55 AM 62.6 °F 55.4 °F 77% 30.10 in 10.0 mi NNE 8.1 mph - N/A   Clear
8:15 AM 62.6 °F 55.4 °F 77% 30.10 in 10.0 mi NE 8.1 mph - N/A   Scattered Clouds
8:35 AM 64.4 °F 55.4 °F 73% 30.11 in 10.0 mi ENE 8.1 mph - N/A   Clear
8:55 AM 66.2 °F 55.4 °F 68% 30.11 in 10.0 mi NNE 8.1 mph - N/A   Clear
9:15 AM 66.2 °F 53.6 °F 64% 30.12 in 10.0 mi NE 6.9 mph - N/A   Clear
9:35 AM 68.0 °F 53.6 °F 60% 30.12 in 10.0 mi NNE 9.2 mph - N/A   Clear
9:55 AM 69.8 °F 53.6 °F 56% 30.12 in 10.0 mi NNE 5.8 mph - N/A   Clear
10:15 AM 69.8 °F 53.6 °F 56% 30.12 in 10.0 mi ENE 9.2 mph - N/A   Clear
10:35 AM 71.6 °F 53.6 °F 53% 30.11 in 10.0 mi NNE 9.2 mph - N/A   Clear
10:55 AM 71.6 °F 53.6 °F 53% 30.11 in 10.0 mi North 8.1 mph - N/A   Clear
11:15 AM 71.6 °F 53.6 °F 53% 30.12 in 10.0 mi NE 10.4 mph - N/A   Mostly Cloudy
11:35 AM 69.8 °F 53.6 °F 56% 30.11 in 10.0 mi NE 11.5 mph - N/A   Mostly Cloudy
11:55 AM 69.8 °F 53.6 °F 56% 30.11 in 10.0 mi North 6.9 mph - N/A   Mostly Cloudy
12:15 PM 71.6 °F 53.6 °F 53% 30.10 in 10.0 mi NNW 9.2 mph - N/A   Mostly Cloudy
12:35 PM 73.4 °F 53.6 °F 50% 30.09 in 10.0 mi North 8.1 mph - N/A   Scattered Clouds
12:55 PM 73.4 °F 51.8 °F 47% 30.09 in 10.0 mi North 11.5 mph - N/A   Scattered Clouds
1:15 PM 71.6 °F 51.8 °F 50% 30.08 in 10.0 mi NNW 5.8 mph 16.1 mph N/A   Scattered Clouds
1:35 PM 73.4 °F 50.0 °F 44% 30.08 in 10.0 mi North 9.2 mph - N/A   Scattered Clouds
1:55 PM 73.4 °F 48.2 °F 41% 30.07 in 10.0 mi NNE 9.2 mph - N/A   Mostly Cloudy
2:15 PM 73.4 °F 50.0 °F 44% 30.07 in 10.0 mi North 9.2 mph - N/A   Mostly Cloudy
2:35 PM 75.2 °F 50.0 °F 41% 30.05 in 10.0 mi NNW 10.4 mph 19.6 mph N/A   Scattered Clouds
2:55 PM 75.2 °F 48.2 °F 38% 30.05 in 10.0 mi NNE 8.1 mph 16.1 mph N/A   Scattered Clouds
3:15 PM 71.6 °F 46.4 °F 41% 30.05 in 10.0 mi North 9.2 mph - N/A   Scattered Clouds
3:35 PM 75.2 °F 48.2 °F 38% 30.05 in 10.0 mi NNE 9.2 mph 20.7 mph N/A   Scattered Clouds
3:55 PM 73.4 °F 48.2 °F 41% 30.05 in 10.0 mi North 8.1 mph - N/A   Scattered Clouds
4:15 PM 73.4 °F 48.2 °F 41% 30.05 in 10.0 mi North 9.2 mph - N/A   Clear
4:35 PM 73.4 °F 46.4 °F 38% 30.06 in 10.0 mi North 9.2 mph 16.1 mph N/A   Scattered Clouds
4:55 PM 73.4 °F 46.4 °F 38% 30.06 in 10.0 mi North 8.1 mph - N/A   Scattered Clouds
5:15 PM 71.6 °F 46.4 °F 41% 30.06 in 10.0 mi North 4.6 mph - N/A   Clear
5:35 PM 71.6 °F 46.4 °F 41% 30.06 in 10.0 mi North 6.9 mph - N/A   Mostly Cloudy
5:55 PM 71.6 °F 48.2 °F 43% 30.06 in 10.0 mi North 10.4 mph 17.3 mph N/A   Mostly Cloudy
6:15 PM 69.8 °F 48.2 °F 46% 30.06 in 10.0 mi NNE 6.9 mph - N/A   Mostly Cloudy
6:35 PM 68.0 °F 48.2 °F 49% 30.06 in 10.0 mi NNE 5.8 mph - N/A   Scattered Clouds
6:55 PM 64.4 °F 50.0 °F 59% 30.06 in 10.0 mi North 3.5 mph - N/A   Clear
7:15 PM 64.4 °F 48.2 °F 56% 30.06 in 10.0 mi North 4.6 mph - N/A   Clear
7:35 PM 62.6 °F 48.2 °F 59% 30.07 in 10.0 mi North 3.5 mph - N/A   Clear
7:55 PM 62.6 °F 48.2 °F 59% 30.07 in 10.0 mi NNE 3.5 mph - N/A   Clear
8:15 PM 60.8 °F 48.2 °F 63% 30.08 in 10.0 mi Calm Calm - N/A   Clear
8:35 PM 60.8 °F 48.2 °F 63% 30.08 in 10.0 mi Calm Calm - N/A   Clear
8:55 PM 60.8 °F 50.0 °F 68% 30.08 in 10.0 mi Calm Calm - N/A   Clear
9:15 PM 59.0 °F 50.0 °F 72% 30.09 in 10.0 mi Calm Calm - N/A   Clear
9:35 PM 57.2 °F 50.0 °F 77% 30.09 in 10.0 mi North 3.5 mph - N/A   Clear
9:55 PM 57.2 °F 50.0 °F 77% 30.09 in 10.0 mi North 5.8 mph - N/A   Clear
10:15 PM 59.0 °F 48.2 °F 67% 30.10 in 10.0 mi NNE 8.1 mph - N/A   Clear
10:35 PM 57.2 °F 48.2 °F 72% 30.10 in 10.0 mi NE 5.8 mph - N/A   Clear
10:55 PM 57.2 °F 48.2 °F 72% 30.10 in 10.0 mi NE 5.8 mph - N/A   Clear
11:15 PM 55.4 °F 48.2 °F 77% 30.11 in 10.0 mi NE 4.6 mph - N/A   Clear
11:35 PM 55.4 °F 48.2 °F 77% 30.11 in 10.0 mi NNE 4.6 mph - N/A   Clear
11:55 PM 55.4 °F 48.2 °F 77% 30.11 in 10.0 mi NNE 4.6 mph - N/A   Clear